This is the latest recevied weather packets stored in our database for station/object DL1BWU. If no packets are shown the sender has not sent any weather packets the latest 10 day(s).
| Time | Temp. | Humidity | Pressure | Rain* | Wind** | Luminosity | Snow |
|---|---|---|---|---|---|---|---|
| 1777671319 | 12.22° C | 58% | 1025.3 hPa | 0 mm | - | - | - |
| 1777670719 | 12.22° C | 57% | 1025.4 hPa | 0 mm | - | - | - |
| 1777670119 | 12.78° C | 56% | 1025.3 hPa | 0 mm | - | - | - |
| 1777669519 | 12.78° C | 56% | 1025.4 hPa | 0 mm | - | - | - |
| 1777668919 | 12.78° C | 55% | 1025.4 hPa | 0 mm | - | - | - |
| 1777668319 | 12.78° C | 55% | 1025.4 hPa | 0 mm | - | - | - |
| 1777667719 | 13.33° C | 54% | 1025.5 hPa | 0 mm | - | - | - |
| 1777667119 | 13.89° C | 53% | 1025.7 hPa | 0 mm | - | - | - |
| 1777666519 | 13.89° C | 52% | 1025.6 hPa | 0 mm | - | - | - |
| 1777665919 | 14.44° C | 51% | 1025.8 hPa | 0 mm | - | - | - |
| 1777665319 | 14.44° C | 50% | 1025.7 hPa | 0 mm | - | - | - |
| 1777664719 | 15° C | 50% | 1025.7 hPa | 0 mm | - | - | - |
| 1777664119 | 15° C | 49% | 1025.7 hPa | 0 mm | - | - | - |
| 1777663519 | 15.56° C | 48% | 1025.7 hPa | 0 mm | - | - | - |
| 1777662919 | 15.56° C | 47% | 1025.7 hPa | 0 mm | - | - | - |
| 1777662319 | 16.67° C | 46% | 1025.7 hPa | 0 mm | - | - | - |
| 1777661719 | 16.67° C | 45% | 1025.6 hPa | 0 mm | - | - | - |
| 1777661119 | 17.78° C | 44% | 1025.6 hPa | 0 mm | - | - | - |
| 1777660519 | 17.78° C | 43% | 1025.4 hPa | 0 mm | - | - | - |
| 1777659919 | 18.33° C | 44% | 1025.5 hPa | 0 mm | - | - | - |
| 1777659319 | 18.89° C | 42% | 1025.4 hPa | 0 mm | - | - | - |
| 1777658719 | 19.44° C | 41% | 1025.3 hPa | 0 mm | - | - | - |
| 1777658119 | 20° C | 40% | 1025.3 hPa | 0 mm | - | - | - |
| 1777657519 | 20.56° C | 39% | 1025.3 hPa | 0 mm | - | - | - |
| 1777656919 | 21.11° C | 38% | 1025.3 hPa | 0 mm | - | - | - |
* Rain latest hour (hover to see other rain measurements)
** Current wind speed in m/s (hover to see current wind gust speed)